Location: Ajisawe
(8.4333°N, 4.3833°E)
Time: 23:42:41
(UTC+00:00)

SR - Pass Details

Date: 25 April 2021
Orbit: 573 x 882 km, 66.7° (Epoch: 07 May)

Event Time Altitude Azimuth Distance (km) Brightness Sun altitude
Exits shadow 03:57:38 - 176° (S) 2,544 ? -22.6°
Reaches altitude 10° 03:58:36 10° 171° (S) 2,211 ? -22.4°
Maximum altitude 04:03:09 33° 107° (ESE) 1,259 ? -21.3°
Drops below altitude 10° 04:08:03 10° 44° (NE) 2,390 ? -20.1°
Sets 04:10:47 0° 35° (NE) 3,365 ? -19.5°
